Location: ??????
(38.0131°N, 23.7723°E)
Time: 17:10:01
(UTC+00:00)

METEOR 2-5 DEB - Pass Details

Date: 12 August 2022
Orbit: 809 x 849 km, 81.2° (Epoch: 29 September)

Event Time Altitude Azimuth Distance (km) Brightness Sun altitude
Rises 18:46:16 0° 5° (N) 3,359 ? -15.6°
Reaches altitude 10° 18:49:11 10° 19° (NNE) 2,416 ? -16.1°
Maximum altitude 18:53:28 23° 71° (ENE) 1,665 ? -16.8°
Enters shadow 18:54:38 22° 90° (E) 1,729 ? -17.0°
